Location: Holyhead Bay
(53.3667°N, 4.6667°W)
Time: 00:27:42
(UTC+00:00)

IRIDIUM 33 DEB - Pass Details

Date: 28 September 2021
Orbit: 583 x 600 km, 86.4° (Epoch: 15 October)

Event Time Altitude Azimuth Distance (km) Brightness Sun altitude
Rises 04:07:48 0° 358° (N) 2,854 ? -19.3°
Reaches altitude 10° 04:10:05 10° 4° (N) 1,943 ? -19.0°
Maximum altitude 04:14:15 52° 81° (E) 746 ? -18.4°
Drops below altitude 10° 04:18:22 10° 158° (SSE) 1,915 ? -17.9°
Sets 04:20:35 0° 164° (SSE) 2,808 ? -17.6°
